EW5029 Weather Reports


Display with metric or nautical units.
time (UTC)temp
F
wind
direction
speed
MPH
gust
MPH
rain 1hr
in
rain 24hr
in
rain mn
in
humidity
%
barometer
mb
20260506031056 50 291 2.0 5.0 0.00 0.00 0.00 83 1009.7
20260506030552 50 287 2.0 6.0 0.00 0.00 0.00 83 1009.8
20260506030056 50 317 3.0 6.0 0.00 0.00 0.00 83 1009.9
20260506025551 50 252 2.0 5.0 0.00 0.00 0.00 83 1009.9
20260506025050 50 303 1.0 4.0 0.00 0.00 0.00 84 1009.9
20260506024556 50 344 1.0 4.0 0.00 0.00 0.00 84 1009.9
20260506024047 50 351 1.0 6.0 0.00 0.00 0.00 84 1009.9
20260506023546 50 341 1.0 6.0 0.00 0.00 0.00 84 1009.9
20260506023045 50 287 1.0 6.0 0.00 0.00 0.00 84 1009.9
20260506022544 50 355 1.0 6.0 0.00 0.00 0.00 84 1009.9
20260506022043 50 299 2.0 9.0 0.00 0.00 0.00 84 1009.9
20260506021557 50 269 2.0 9.0 0.00 0.00 0.00 84 1009.9
20260506021041 50 15 1.0 7.0 0.00 0.00 0.00 83 1009.9
20260506020541 50 355 3.0 7.0 0.00 0.00 0.00 83 1009.9
20260506020040 50 52 2.0 6.0 0.00 0.00 0.00 83 1009.9
20260506015539 50 23 2.0 6.0 0.00 0.00 0.00 83 1010.0
20260506015039 50 283 2.0 10.0 0.00 0.00 0.00 83 1010.1
20260506014539 50 46 3.0 10.0 0.00 0.00 0.00 83 1010.0
20260506014040 50 277 2.0 9.0 0.00 0.00 0.00 83 1010.0
20260506013537 50 255 1.0 5.0 0.00 0.00 0.00 83 1010.1
20260506013040 50 71 2.0 5.0 0.00 0.00 0.00 83 1010.1
20260506012638 50 288 2.0 5.0 0.00 0.00 0.00 83 1010.1
20260506012039 50 312 1.0 8.0 0.00 0.00 0.00 83 1010.1
20260506011538 50 290 1.0 8.0 0.00 0.00 0.00 83 1010.1
20260506011037 49 63 2.0 5.0 0.00 0.00 0.00 84 1010.1
20260506010537 49 310 0.0 7.0 0.00 0.00 0.00 84 1010.2
20260506010035 49 292 1.0 4.0 0.00 0.00 0.00 83 1010.2
20260506005534 49 64 1.0 4.0 0.00 0.00 0.00 83 1010.3
20260506005034 49 325 1.0 4.0 0.00 0.00 0.00 83 1010.3
20260506004535 49 34 1.0 4.0 0.00 0.00 0.00 83 1010.4
20260506004034 49 282 2.0 9.0 0.00 0.00 0.00 83 1010.5
20260506003532 49 292 1.0 8.0 0.00 0.00 0.00 83 1010.5
20260506003032 49 30 1.0 5.0 0.00 0.00 0.00 83 1010.6
20260506002531 49 302 1.0 5.0 0.00 0.00 0.00 82 1010.5
20260506002030 50 295 2.0 6.0 0.00 0.00 0.00 82 1010.6
20260506001533 50 331 2.0 6.0 0.00 0.00 0.00 83 1010.6
20260506001030 50 300 1.0 5.0 0.00 0.00 0.00 83 1010.7
20260506000530 50 309 2.0 5.0 0.00 0.00 0.00 83 1010.7
20260506000038 50 310 2.0 5.0 0.00 0.00 0.00 83 1010.7
20260505235533 50 327 2.0 7.0 0.00 0.00 0.00 83 1010.7
20260505235030 50 82 3.0 7.0 0.00 0.00 0.00 83 1010.7
20260505234528 50 307 1.0 5.0 0.00 0.00 0.00 83 1010.7
20260505234029 50 297 1.0 5.0 0.00 0.00 0.00 82 1010.8
20260505233526 50 55 2.0 6.0 0.00 0.00 0.00 82 1010.9
20260505233027 49 333 2.0 6.0 0.00 0.00 0.00 82 1010.9
20260505232525 49 299 0.0 7.0 0.00 0.00 0.00 82 1011.0
20260505232033 49 306 1.0 7.0 0.00 0.00 0.00 82 1011.0
20260505231525 49 80 2.0 5.0 0.00 0.00 0.00 81 1011.1
20260505231024 49 297 0.0 6.0 0.00 0.00 0.00 81 1011.1
20260505230523 49 299 2.0 5.0 0.00 0.00 0.00 81 1011.1
20260505230025 49 317 2.0 4.0 0.00 0.00 0.00 81 1011.1
20260505225524 49 284 1.0 4.0 0.00 0.00 0.00 81 1011.1
20260505225023 49 331 1.0 8.0 0.00 0.00 0.00 80 1011.1
20260505224523 49 288 1.0 8.0 0.00 0.00 0.00 80 1011.1
20260505224023 49 299 1.0 5.0 0.00 0.00 0.00 80 1011.0
20260505223524 49 310 1.0 5.0 0.00 0.00 0.00 79 1011.1
20260505223027 50 271 1.0 4.0 0.00 0.00 0.00 79 1011.2
20260505222519 50 315 2.0 4.0 0.00 0.00 0.00 79 1011.2
20260505222018 50 317 1.0 6.0 0.00 0.00 0.00 78 1011.3
20260505221519 50 51 2.0 9.0 0.00 0.00 0.00 78 1011.3
20260505221018 50 5 1.0 5.0 0.00 0.00 0.00 77 1011.3
20260505220517 50 331 1.0 7.0 0.00 0.00 0.00 77 1011.4
20260505220015 50 319 1.0 7.0 0.00 0.00 0.00 76 1011.4
20260505215515 50 300 1.0 4.0 0.00 0.00 0.00 76 1011.4
20260505215015 50 67 1.0 5.0 0.00 0.00 0.00 76 1011.4
20260505214523 50 52 2.0 10.0 0.00 0.00 0.00 75 1011.5
20260505214015 50 23 3.0 10.0 0.00 0.00 0.00 75 1011.5
20260505213518 50 312 3.0 7.0 0.00 0.00 0.00 75 1011.5
20260505213018 50 334 3.0 7.0 0.00 0.00 0.00 75 1011.6
20260505212514 50 288 1.0 5.0 0.00 0.00 0.00 75 1011.7
20260505212014 50 319 1.0 8.0 0.00 0.00 0.00 75 1011.6
20260505211514 50 17 2.0 9.0 0.00 0.00 0.00 75 1011.5
20260505211014 50 45 2.0 6.0 0.00 0.00 0.00 75 1011.6
20260505210514 50 313 2.0 9.0 0.00 0.00 0.00 75 1011.5
20260505210013 50 294 3.0 9.0 0.00 0.00 0.00 75 1011.5
20260505205513 50 261 1.0 6.0 0.00 0.01 0.00 76 1011.7
20260505205017 50 80 3.0 7.0 0.00 0.01 0.00 76 1011.7
20260505204514 50 22 2.0 7.0 0.00 0.01 0.00 76 1011.8
20260505204011 50 309 1.0 5.0 0.00 0.01 0.00 76 1011.7
20260505203512 50 12 1.0 5.0 0.00 0.01 0.00 76 1011.7
20260505203012 50 16 1.0 6.0 0.00 0.01 0.00 77 1011.7
20260505202512 50 65 2.0 6.0 0.00 0.01 0.00 76 1011.7
20260505202012 50 336 2.0 7.0 0.00 0.01 0.00 76 1011.6
20260505201514 50 57 2.0 9.0 0.00 0.01 0.00 76 1011.7
20260505201012 51 53 3.0 9.0 0.00 0.01 0.00 76 1011.6
20260505200511 51 278 3.0 9.0 0.00 0.01 0.00 76 1011.5
20260505200011 51 293 2.0 8.0 0.00 0.01 0.00 76 1011.5
20260505195509 51 325 2.0 8.0 0.00 0.01 0.00 75 1011.5
20260505195010 51 312 1.0 8.0 0.00 0.01 0.00 75 1011.4
20260505194510 51 317 1.0 9.0 0.00 0.01 0.00 75 1011.4
20260505194010 51 22 2.0 9.0 0.00 0.01 0.00 75 1011.4
20260505193515 51 80 2.0 7.0 0.00 0.01 0.00 75 1011.3
20260505193011 51 340 1.0 8.0 0.00 0.01 0.00 75 1011.2
20260505192511 51 254 3.0 9.0 0.00 0.01 0.00 75 1011.1
20260505192009 51 27 4.0 9.0 0.00 0.01 0.00 75 1011.2
20260505191509 51 80 2.0 13.0 0.00 0.01 0.00 75 1011.1
20260505191008 51 77 3.0 13.0 0.00 0.01 0.00 75 1011.1
20260505190508 52 325 2.0 6.0 0.00 0.01 0.00 75 1011.0
20260505190019 52 56 2.0 11.0 0.00 0.01 0.00 75 1011.0
20260505185510 52 5 2.0 11.0 0.00 0.01 0.00 75 1011.0
20260505185010 52 347 3.0 10.0 0.00 0.01 0.00 75 1011.0
20260505184511 52 72 3.0 10.0 0.00 0.01 0.00 74 1011.0
20260505184007 52 319 3.0 10.0 0.00 0.01 0.00 74 1011.0
20260505183507 52 11 4.0 10.0 0.00 0.01 0.00 74 1011.0
20260505183008 53 196 2.0 9.0 0.00 0.01 0.00 74 1010.9
20260505182511 53 9 3.0 8.0 0.00 0.01 0.00 74 1010.9
20260505182005 53 344 2.0 8.0 0.00 0.01 0.00 74 1010.9
20260505181506 53 312 2.0 12.0 0.00 0.01 0.00 73 1011.0
20260505181004 53 306 3.0 10.0 0.00 0.01 0.00 73 1011.0
20260505180504 54 90 2.0 10.0 0.00 0.01 0.00 73 1011.0
20260505180008 54 46 3.0 8.0 0.00 0.01 0.00 72 1011.0
20260505175509 54 285 2.0 11.0 0.00 0.01 0.00 73 1011.0
20260505175006 54 330 4.0 12.0 0.00 0.01 0.00 72 1011.0
20260505174507 54 339 3.0 11.0 0.00 0.01 0.00 72 1011.0
20260505174002 55 62 3.0 11.0 0.00 0.01 0.00 72 1011.0
20260505173506 55 298 2.0 8.0 0.00 0.01 0.00 72 1011.0
20260505173003 55 327 2.0 9.0 0.00 0.01 0.00 72 1011.0
20260505172502 55 55 3.0 10.0 0.00 0.01 0.00 71 1011.0
20260505172002 55 332 3.0 8.0 0.00 0.01 0.00 71 1011.0
20260505171506 56 271 2.0 10.0 0.00 0.01 0.00 70 1011.0
20260505171003 56 269 2.0 10.0 0.00 0.01 0.00 71 1010.9
20260505170502 56 275 3.0 10.0 0.00 0.01 0.00 71 1010.9
20260505170002 56 15 4.0 10.0 0.00 0.01 0.00 70 1010.9
20260505165502 56 72 2.0 11.0 0.00 0.01 0.00 70 1010.8
20260505165002 56 277 2.0 11.0 0.00 0.01 0.00 69 1010.9
20260505164501 56 281 3.0 11.0 0.00 0.01 0.00 69 1010.9
20260505164002 56 282 2.0 11.0 0.00 0.01 0.00 69 1010.9
20260505163505 56 331 2.0 11.0 0.00 0.01 0.00 69 1010.9
20260505163101 57 45 4.0 10.0 0.00 0.01 0.00 68 1010.9
20260505162600 57 329 3.0 9.0 0.00 0.01 0.00 68 1010.9
20260505162100 57 267 2.0 10.0 0.00 0.01 0.00 68 1011.0
20260505161606 57 54 4.0 10.0 0.00 0.01 0.00 67 1010.9
20260505161059 57 323 3.0 10.0 0.00 0.01 0.00 67 1011.0
20260505160558 57 334 2.0 9.0 0.00 0.01 0.00 67 1011.0
20260505153103 58 83 2.0 8.0 0.00 0.01 0.00 66 1011.0
20260505152557 58 71 2.0 6.0 0.00 0.01 0.00 66 1011.0
20260505152056 58 17 2.0 11.0 0.00 0.01 0.00 67 1011.1
20260505151607 58 101 2.0 13.0 0.00 0.01 0.00 67 1011.1
20260505151056 58 82 1.0 13.0 0.00 0.01 0.00 66 1011.1
20260505150556 58 294 3.0 10.0 0.00 0.01 0.00 67 1011.0
20260505140551 59 82 2.0 10.0 0.00 0.01 0.00 66 1011.3
20260505140110 58 78 2.0 10.0 0.00 0.01 0.00 66 1011.3
20260505124547 59 24 4.0 14.0 0.00 0.01 0.00 65 1011.6
20260505124046 59 323 3.0 11.0 0.00 0.01 0.00 64 1011.7
20260505123545 59 5 5.0 11.0 0.00 0.01 0.00 65 1011.6
20260505123051 59 90 3.0 10.0 0.00 0.01 0.00 65 1011.6
20260505122544 59 69 3.0 9.0 0.00 0.01 0.00 65 1011.7
20260505122043 59 57 2.0 9.0 0.00 0.01 0.00 65 1011.7
20260505121542 59 30 3.0 9.0 0.00 0.01 0.00 64 1011.8
20260505121042 59 322 2.0 9.0 0.00 0.01 0.00 65 1011.8
20260505120541 59 281 2.0 12.0 0.00 0.01 0.00 66 1011.8
20260505120048 59 84 4.0 11.0 0.00 0.01 0.00 65 1011.9
20260505115540 59 69 2.0 10.0 0.00 0.01 0.00 67 1011.9
20260505115039 59 79 4.0 10.0 0.00 0.01 0.00 65 1012.0
20260505114544 59 290 2.0 9.0 0.00 0.01 0.00 65 1012.0
20260505114036 59 330 3.0 9.0 0.00 0.01 0.00 67 1012.0
20260505113537 58 69 2.0 12.0 0.00 0.01 0.00 66 1012.0
20260505113035 58 76 3.0 10.0 0.00 0.01 0.00 68 1012.1
20260505112535 58 62 3.0 9.0 0.00 0.01 0.00 67 1012.0
20260505112035 58 12 2.0 10.0 0.00 0.01 0.00 67 1011.9
20260505111534 58 296 3.0 8.0 0.00 0.01 0.00 68 1011.9
20260505111033 58 84 3.0 9.0 0.00 0.01 0.00 67 1012.0
20260505110533 58 17 2.0 9.0 0.00 0.01 0.00 67 1012.0
20260505102027 57 35 2.0 14.0 0.00 0.01 0.00 68 1012.6
20260505101540 57 63 3.0 10.0 0.00 0.01 0.00 67 1012.6
20260505101027 57 308 1.0 9.0 0.00 0.01 0.00 69 1012.5
20260505100527 57 281 2.0 9.0 0.00 0.01 0.00 69 1012.5
20260505100026 57 93 2.0 9.0 0.00 0.01 0.00 69 1012.3
20260505095525 57 315 2.0 10.0 0.00 0.02 0.00 70 1012.4
20260505095029 56 51 3.0 10.0 0.00 0.02 0.00 69 1012.5
20260505094534 56 15 2.0 10.0 0.00 0.02 0.00 69 1012.5
20260505094025 57 44 5.0 10.0 0.00 0.02 0.00 69 1012.5
20260505093525 56 49 4.0 12.0 0.00 0.02 0.00 69 1012.5
20260505093024 57 182 3.0 9.0 0.00 0.02 0.00 68 1012.5
20260505092527 57 304 3.0 6.0 0.00 0.02 0.00 69 1012.6
20260505092022 57 57 2.0 9.0 0.00 0.02 0.00 71 1012.6
20260505091521 56 60 2.0 9.0 0.00 0.02 0.00 70 1012.6
20260505091020 56 94 1.0 8.0 0.00 0.02 0.00 70 1012.5
20260505090518 56 19 2.0 8.0 0.00 0.02 0.00 72 1012.5
20260505090021 55 307 2.0 9.0 0.00 0.02 0.00 71 1012.4
20260505085519 55 332 2.0 11.0 0.00 0.02 0.00 71 1012.4
20260505085016 55 82 5.0 11.0 0.00 0.02 0.00 70 1012.4
20260505084515 55 19 4.0 11.0 0.00 0.02 0.00 70 1012.4
20260505084016 55 307 4.0 11.0 0.00 0.02 0.00 71 1012.3
20260505083512 55 355 2.0 9.0 0.00 0.02 0.00 73 1012.3
20260505083017 55 310 3.0 8.0 0.00 0.02 0.00 73 1012.3
20260505082514 54 85 3.0 8.0 0.00 0.02 0.00 73 1012.4
20260505082010 54 57 2.0 10.0 0.00 0.02 0.00 73 1012.5
20260505081507 55 286 4.0 13.0 0.00 0.02 0.00 73 1012.5
20260505081009 54 94 2.0 8.0 0.00 0.02 0.00 74 1012.6
20260505080504 54 271 2.0 9.0 0.00 0.02 0.00 73 1012.6
20260505080005 54 55 3.0 15.0 0.00 0.02 0.00 74 1012.7
20260505075506 54 64 2.0 15.0 0.00 0.02 0.00 75 1012.7
20260505075003 53 48 3.0 9.0 0.00 0.02 0.00 75 1012.7
20260505074601 53 342 2.0 9.0 0.00 0.02 0.00 76 1012.7
20260505074100 53 76 3.0 12.0 0.00 0.02 0.00 76 1012.8
20260505073558 53 9 2.0 10.0 0.00 0.02 0.00 77 1012.9
20260505073124 53 82 2.0 7.0 0.00 0.02 0.00 79 1012.9
20260505072557 52 9 2.0 6.0 0.00 0.02 0.00 80 1013.0
20260505072058 52 65 2.0 6.0 0.00 0.02 0.00 81 1013.0
20260505071602 52 282 2.0 5.0 0.00 0.02 0.00 82 1013.0
20260505071055 51 297 1.0 8.0 0.00 0.02 0.00 82 1013.1
20260505070555 51 31 3.0 10.0 0.00 0.02 0.00 82 1013.0
20260505070101 51 58 3.0 10.0 0.00 0.02 0.00 82 1013.1
20260505065556 51 26 1.0 5.0 0.00 0.02 0.00 83 1013.1
20260505065053 51 302 2.0 8.0 0.00 0.02 0.00 83 1013.2
20260505064553 51 59 2.0 8.0 0.00 0.02 0.00 83 1013.4
20260505064052 51 74 1.0 9.0 0.00 0.02 0.00 84 1013.4
20260505063551 51 78 1.0 9.0 0.00 0.02 0.00 84 1013.4
20260505063051 51 94 2.0 4.0 0.00 0.02 0.00 84 1013.3
20260505062550 51 43 1.0 5.0 0.00 0.02 0.00 84 1013.3
20260505062052 51 291 1.0 5.0 0.00 0.02 0.00 84 1013.3
20260505061551 51 87 1.0 6.0 0.00 0.02 0.00 84 1013.2
20260505061047 51 312 1.0 7.0 0.00 0.02 0.00 84 1013.2
20260505060547 51 66 0.0 5.0 0.00 0.02 0.00 85 1013.2
20260505060051 50 59 2.0 6.0 0.00 0.02 0.00 84 1013.1
20260505055548 50 72 2.0 6.0 0.00 0.02 0.00 84 1013.1
20260505055045 50 43 1.0 4.0 0.00 0.02 0.00 85 1013.1
20260505054546 50 313 0.0 5.0 0.00 0.02 0.00 85 1013.1
20260505054043 50 311 1.0 5.0 0.00 0.02 0.00 85 1013.2
20260505053544 50 17 1.0 8.0 0.00 0.02 0.00 85 1013.1
20260505053042 50 92 2.0 7.0 0.00 0.02 0.00 85 1013.1
20260505052541 50 29 0.0 7.0 0.00 0.02 0.00 86 1013.0
20260505052040 50 298 1.0 7.0 0.00 0.02 0.00 86 1013.0
20260505051556 50 37 1.0 5.0 0.00 0.02 0.00 86 1013.0
20260505051043 50 53 1.0 7.0 0.00 0.02 0.00 86 1013.0
20260505050539 50 5 2.0 7.0 0.00 0.02 0.00 86 1012.9
20260505041538 50 325 1.0 9.0 0.00 0.02 0.00 86 1012.8
20260505041035 50 346 0.0 8.0 0.00 0.02 0.00 86 1012.8
20260505040537 50 48 2.0 8.0 0.00 0.02 0.00 86 1012.8
20260505040037 50 355 1.0 7.0 0.00 0.02 0.00 86 1012.8
20260505035534 50 42 1.0 6.0 0.00 0.02 0.00 86 1012.8
20260505035033 50 58 2.0 9.0 0.00 0.02 0.00 86 1013.0
20260505034532 50 302 1.0 9.0 0.00 0.02 0.00 86 1013.0
20260505034032 50 19 3.0 9.0 0.00 0.02 0.00 86 1013.1
20260505033532 50 54 1.0 10.0 0.00 0.02 0.00 86 1013.0
20260505033032 50 308 2.0 10.0 0.00 0.02 0.00 86 1013.0
20260505032531 50 49 2.0 5.0 0.00 0.02 0.00 86 1013.0
20260505032030 50 350 1.0 6.0 0.00 0.02 0.00 86 1013.0
20260505031532 50 302 2.0 6.0 0.00 0.02 0.00 86 1013.0